Alexandria, LA

3:13 AM CDT on April 23, 2017 (GMT -0500)
Alexandria International

Weather History for KAEX - January, 2006

Change the Weather History Date:

Monday, January 23, 2006

  Actual Average Record
Temperature  
Mean Temperature 50 °F 49 °F  
Max Temperature 53 °F 60 °F 81 °F (1943)
Min Temperature 47 °F 38 °F 14 °F (1948)
Degree Days  
Heating Degree Days 15 16  
Month to date heating degree days 245 368  
Since 1 July heating degree days 1036 1157  
Moisture  
Dew Point 47 °F    
Average Humidity 89    
Maximum Humidity 93    
Minimum Humidity 83    
Precipitation  
Precipitation 0.01 in 0.17 in 3.01 in (1980)
Month to date precipitation 2.95 3.65  
Year to date precipitation 2.95 3.65  
Snow  
Snow 0.00 in - 8.20 in (1940)
Month to date snowfall 0.0  
Since 1 July snowfall 0.0  
Snow Depth 0.00 in    
Sea Level Pressure  
Sea Level Pressure 30.14 in    
Wind  
Wind Speed 8 mph (North)    
Max Wind Speed 12 mph    
Max Gust Speed -    
Visibility 5 miles    
Events Fog , Rain    
T = Trace of Precipitation, MM = Missing Value Source: NWS Daily Summary

Daily Weather History Graph

Daily Weather History Graph

Search for Another Location

Airport or City:

Trip Planner

Search our weather history database for the weather conditions in past years. The results will help you decide how hot, cold, wet, or windy it might be!

Date:

Astronomy

Jan. 23, 2006 Rise Set
Actual Time 7:07 AM CST 5:37 PM CST
Civil Twilight 6:41 AM CST 6:03 PM CST
Nautical Twilight 6:12 AM CST 6:32 PM CST
Astronomical Twilight 5:43 AM CST 7:01 PM CST
Moon 1:15 AM CST 11:58 AM CST
Length of Visible Light 11h 21m
Length of Day
10h 29m
Last Quarter, 39% of the Moon is Illuminated
Jan 23
Last Quarter
Jan 29
New
Feb 5
First Quarter
Feb 12
Full
Feb 21
Last Quarter

Hourly Weather History & Observations

Time (CST) Temp. Dew Point Humidity Pressure Visibility Wind Dir Wind Speed Gust Speed Precip Events Conditions
12:53 AM 51.1 °F 48.9 °F 92% 30.05 in 10.0 mi NW 5.8 mph - N/A   Overcast
1:10 AM 51.8 °F 48.2 °F 88% 30.03 in 1.8 mi WNW 8.1 mph - N/A   Overcast
1:22 AM 51.8 °F 48.2 °F 88% 30.03 in 0.5 mi NW 10.4 mph - N/A Fog Fog
1:53 AM 51.1 °F 48.9 °F 92% 30.06 in 1.0 mi NW 9.2 mph - N/A   Overcast
2:44 AM 51.8 °F 48.2 °F 88% 30.05 in 2.5 mi NNW 10.4 mph - N/A   Overcast
2:53 AM 50.0 °F 48.0 °F 93% 30.07 in 2.5 mi NNW 11.5 mph - 0.00 in Rain Light Rain
3:53 AM 50.0 °F 46.9 °F 89% 30.07 in 2.0 mi NNW 11.5 mph - 0.00 in   Overcast
4:23 AM 48.2 °F 46.4 °F 93% 30.07 in 3.0 mi NNW 8.1 mph - N/A   Overcast
4:53 AM 48.9 °F 46.9 °F 93% 30.09 in 3.0 mi NNW 6.9 mph - N/A   Overcast
5:53 AM 48.9 °F 46.9 °F 93% 30.10 in 7.0 mi NNW 6.9 mph - N/A   Overcast
6:53 AM 48.9 °F 46.0 °F 90% 30.11 in 10.0 mi NNW 5.8 mph - N/A   Overcast
7:53 AM 48.9 °F 46.0 °F 90% 30.13 in 2.5 mi North 8.1 mph - N/A   Overcast
8:43 AM 48.2 °F 46.4 °F 93% 30.15 in 2.0 mi North 6.9 mph - 0.01 in   Overcast
8:53 AM 48.0 °F 46.0 °F 93% 30.17 in 2.0 mi NNE 8.1 mph - 0.01 in   Overcast
9:19 AM 48.2 °F 46.4 °F 93% 30.17 in 1.5 mi North 9.2 mph - N/A   Overcast
9:39 AM 48.2 °F 46.4 °F 93% 30.17 in 2.0 mi North 8.1 mph - N/A   Overcast
9:53 AM 48.0 °F 46.0 °F 93% 30.19 in 1.8 mi North 5.8 mph - N/A   Overcast
10:01 AM 48.2 °F 46.4 °F 93% 30.17 in 1.2 mi NNE 6.9 mph - N/A   Overcast
10:21 AM 48.2 °F 46.4 °F 93% 30.17 in 2.0 mi North 6.9 mph - N/A   Overcast
10:29 AM 50.0 °F 46.4 °F 87% 30.17 in 3.0 mi North 6.9 mph - N/A   Overcast
10:53 AM 50.0 °F 46.0 °F 86% 30.19 in 6.0 mi North 6.9 mph - N/A   Overcast
11:53 AM 51.1 °F 46.0 °F 83% 30.17 in 10.0 mi North 6.9 mph - N/A   Overcast
12:53 PM 52.0 °F 46.9 °F 83% 30.14 in 10.0 mi North 6.9 mph - N/A   Overcast
1:53 PM 52.0 °F 46.9 °F 83% 30.12 in 10.0 mi North 10.4 mph - N/A   Overcast
2:53 PM 52.0 °F 46.9 °F 83% 30.12 in 10.0 mi NNW 6.9 mph - N/A   Overcast
3:53 PM 52.0 °F 46.9 °F 83% 30.15 in 10.0 mi North 8.1 mph - N/A   Overcast
4:53 PM 51.1 °F 46.9 °F 86% 30.17 in 5.0 mi North 10.4 mph - N/A   Overcast
5:53 PM 50.0 °F 46.0 °F 86% 30.17 in 4.0 mi North 9.2 mph - N/A   Overcast
6:53 PM 50.0 °F 45.0 °F 83% 30.19 in 10.0 mi North 10.4 mph - N/A   Overcast
7:53 PM 48.9 °F 45.0 °F 86% 30.20 in 10.0 mi North 8.1 mph - N/A   Overcast
8:53 PM 48.9 °F 45.0 °F 86% 30.21 in 10.0 mi North 9.2 mph - N/A   Overcast
9:53 PM 48.9 °F 45.0 °F 86% 30.22 in 7.0 mi North 6.9 mph - N/A   Overcast
10:53 PM 48.0 °F 45.0 °F 89% 30.22 in 7.0 mi NNE 8.1 mph - N/A   Overcast
11:53 PM 48.0 °F 44.1 °F 86% 30.22 in 7.0 mi North 8.1 mph - N/A   Overcast